VK3BKO-13 Weather Reports


time (UTC)temp
C
wind
direction
speed
KPH
gust
KPH
rain 1hr
cm
rain 24hr
cm
rain mn
cm
humidity
%
barometer
mb
20260505121704 13 339 0.0 0.0 0.00 0.00 0.00 73 1022.0
20260505120204 14 336 0.0 1.6 0.00 0.00 0.00 72 1022.4
20260505114704 14 335 0.0 1.6 0.00 0.00 0.00 71 1022.0
20260505113203 14 332 1.6 1.6 0.00 0.00 0.00 70 1022.0
20260505111704 14 326 0.0 0.0 0.00 0.00 0.00 70 1022.0
20260505110204 14 338 1.6 1.6 0.00 0.00 0.00 68 1022.0
20260505101704 14 335 0.0 1.6 0.00 0.00 0.00 72 1021.7
20260505100204 14 319 0.0 1.6 0.00 0.00 0.00 73 1022.0
20260505094704 14 336 0.0 0.0 0.00 0.00 0.00 72 1021.7
20260505093203 14 338 0.0 0.0 0.00 0.00 0.00 71 1022.0
20260505091704 15 352 1.6 1.6 0.00 0.00 0.00 71 1022.0
20260505090204 15 316 1.6 1.6 0.00 0.00 0.00 71 1021.7
20260505084704 15 329 0.0 0.0 0.00 0.00 0.00 71 1021.7
20260505083204 15 344 1.6 3.2 0.00 0.00 0.00 71 1021.7
20260505081704 15 329 0.0 0.0 0.00 0.00 0.00 72 1021.4
20260505080203 15 311 3.2 3.2 0.00 0.00 0.00 72 1021.4
20260505074703 15 324 1.6 1.6 0.00 0.00 0.00 71 1021.4
20260505073203 15 288 4.8 4.8 0.00 0.00 0.00 71 1021.0
20260505071704 15 331 3.2 3.2 0.00 0.00 0.00 70 1021.0
20260505070204 15 273 6.4 9.7 0.00 0.00 0.00 68 1021.0
20260505064704 15 261 1.6 3.2 0.00 0.00 0.00 67 1020.7
20260505063203 15 295 3.2 4.8 0.00 0.00 0.00 65 1020.7
20260505061703 16 298 4.8 6.4 0.00 0.00 0.00 63 1020.7
20260505060203 16 319 3.2 3.2 0.00 0.00 0.00 63 1020.7
20260505054703 16 266 3.2 3.2 0.00 0.00 0.00 63 1020.4
20260505053203 16 317 4.8 4.8 0.00 0.00 0.00 64 1020.0
20260505051703 16 249 3.2 6.4 0.00 0.00 0.00 65 1020.0
20260505050203 15 320 3.2 4.8 0.00 0.00 0.00 66 1020.0
20260505041703 15 240 3.2 3.2 0.00 0.00 0.00 63 1019.7
20260505040203 16 288 3.2 3.2 0.00 0.00 0.00 66 1019.7
20260505034703 16 338 1.6 3.2 0.00 0.00 0.00 65 1019.3
20260505033204 16 328 1.6 3.2 0.00 0.00 0.00 64 1019.7
20260505031704 16 285 6.4 9.7 0.00 0.00 0.00 62 1019.7
20260505030203 17 316 6.4 11.3 0.00 0.00 0.00 63 1019.7
20260505024704 17 300 9.7 11.3 0.00 0.00 0.00 64 1019.7
20260505023204 15 338 1.6 3.2 0.00 0.00 0.00 68 1019.7
20260505021704 15 262 6.4 9.7 0.00 0.00 0.00 66 1019.7
20260505020204 15 284 6.4 11.3 0.00 0.00 0.00 66 1019.7
20260505014704 15 290 4.8 6.4 0.00 0.00 0.00 68 1020.0
20260505013204 15 241 9.7 14.5 0.00 0.00 0.00 68 1019.7
20260505011703 15 301 8.0 9.7 0.00 0.00 0.00 70 1020.0
20260505010203 15 280 9.7 12.9 0.00 0.00 0.00 72 1020.0
20260505004704 15 277 6.4 6.4 0.00 0.00 0.00 72 1020.0
20260505003204 15 343 4.8 6.4 0.00 0.00 0.00 73 1019.7
20260505001704 15 263 12.9 16.1 0.00 0.00 0.00 73 1019.3
20260505000204 14 305 8.0 16.1 0.00 0.00 0.00 74 1019.3
20260504234704 14 348 3.2 4.8 0.00 0.00 0.00 75 1019.0
20260504233203 13 321 4.8 6.4 0.00 0.00 0.00 77 1019.0
20260504231703 14 352 6.4 9.7 0.00 0.00 0.00 76 1019.0
20260504230203 14 289 4.8 6.4 0.00 0.00 0.00 77 1018.7
20260504224704 13 298 4.8 6.4 0.00 0.00 0.00 78 1018.7
20260504223302 14 319 3.2 4.8 0.00 0.00 0.00 78 1018.3
20260504221704 13 323 8.0 12.9 0.00 0.00 0.00 80 1018.0
20260504220203 13 341 1.6 3.2 0.00 0.00 0.00 80 1017.6
20260504214704 13 286 6.4 6.4 0.00 0.00 0.00 81 1017.6
20260504213203 13 330 6.4 9.7 0.00 0.00 0.00 81 1017.3
20260504211704 13 305 3.2 3.2 0.00 0.00 0.00 82 1017.0
20260504210203 13 239 3.2 4.8 0.00 0.00 0.00 82 1017.0
20260504204703 13 330 3.2 4.8 0.00 0.00 0.00 82 1016.6
20260504203204 13 300 3.2 3.2 0.00 0.00 0.00 83 1016.6
20260504201703 13 306 3.2 4.8 0.00 0.00 0.00 82 1015.9
20260504200204 13 285 4.8 4.8 0.00 0.00 0.00 81 1015.9
20260504194703 13 315 6.4 11.3 0.00 0.00 0.00 81 1015.6
20260504193204 13 343 4.8 6.4 0.00 0.00 0.00 80 1015.6
20260504191704 13 242 8.0 9.7 0.00 0.00 0.00 79 1015.6
20260504190204 13 322 6.4 6.4 0.00 0.00 0.00 79 1015.3
20260504184703 13 327 3.2 3.2 0.00 0.00 0.00 79 1015.3
20260504183204 13 318 4.8 6.4 0.00 0.00 0.00 78 1014.9
20260504181704 13 300 9.7 12.9 0.00 0.00 0.00 78 1014.9
20260504180204 13 340 4.8 6.4 0.00 0.00 0.00 78 1014.6
20260504174704 13 280 8.0 9.7 0.00 0.00 0.00 78 1014.3
20260504173204 13 296 4.8 4.8 0.00 0.00 0.00 77 1014.3
20260504171703 13 324 9.7 14.5 0.00 0.00 0.00 76 1014.3
20260504170203 13 320 6.4 14.5 0.00 0.00 0.00 75 1013.9
20260504160204 14 350 14.5 17.7 0.00 0.00 0.00 73 1013.9
20260504150203 14 280 6.4 9.7 0.00 0.00 0.00 73 1013.6
20260504140204 15 325 8.0 11.3 0.00 0.00 0.00 72 1012.9
20260504130203 15 304 8.0 11.3 0.00 0.00 0.03 72 1012.9